AirNav   Air Wisconsin pilot careers
 
 794 users online  

05OR 6 Ranch Airport
Enterprise, Oregon, USA


FAA INFORMATION EFFECTIVE 09 NOVEMBER 2017

Location

FAA Identifier: 05OR
Lat/Long: 45-26-39.3000N / 117-20-50.3000W
45-26.655000N / 117-20.838333W
45.4442500 / -117.3473056
(estimated)
Elevation: 3500 ft. / 1067 m (estimated)
Variation: 18E (1985)
From city: 3 miles W of ENTERPRISE, OR
Time zone: UTC -8 (UTC -7 during Daylight Saving Time)
Zip code: 97828

Airport Operations

Airport use: Private use. Permission required prior to landing
Activation date: 08/1980
Control tower: no
ARTCC: SEATTLE CENTER
FSS: MC MINNVILLE FLIGHT SERVICE STATION
Attendance: UNATNDD
Wind indicator: yes
Segmented circle: no

Airport Communications

WX AWOS-3 at JSY (6 nm SE): 123.775 ((541) 432-0458)

Nearby radio navigation aids

NDB name  Hdg/Dist  Freq  Var  ID
LA GRANDE060/26.629617ELGD .-.. --. -..

Airport Services

Runway Information

Runway 11/29

Dimensions: 2600 x 50 ft. / 792 x 15 m
Surface: turf
RUNWAY 11  RUNWAY 29
Traffic pattern: leftleft
Obstructions: pline
PLINE AND HILLS AND TREES IN THE APCH.
pline, 3500 ft. from runway

Helipad H1

Dimensions: 75 x 75 ft. / 23 x 23 m
Surface: turf
Traffic pattern: leftleft

Airport Ownership and Management from official FAA records

Ownership: Privately-owned
Owner: MCALISTER LAND, LLC
7892 NE QUAALE RD
MADRAS, OR 97741
Phone 541-426-3827
Manager: LIZA J. MCALISTER
7892 NE QUAALE RD
MADRAS, OR 97741-9562
Phone 541-426-3827

Airport Operational Statistics

Aircraft based on the field: 2
Single engine airplanes: 1
Helicopters: 1
    

Additional Remarks

A52-H1 PLINE AND HILLS AND TREES ALL QUANDRANTS.

Instrument Procedures

There are no published instrument procedures at 05OR.

Some nearby airports with instrument procedures:

KLGD - La Grande/Union County Airport (29 nm W)
KBKE - Baker City Municipal Airport (41 nm SW)
KALW - Walla Walla Regional Airport (55 nm NW)
KLWS - Lewiston-Nez Perce County Airport (58 nm N)
KGIC - Idaho County Airport (59 nm NE)
 
Loc | Ops | Rwys | IFR | FBO | Links
Com | Nav | Svcs | Stats | Notes


 
Area around 05OR (6 Ranch Airport)
 
Road maps at: MapQuest Bing Google
 
Aerial photo
WARNING: Photo may not be current or correct
Aerial photo of 05OR (6 Ranch Airport)
Do you have a better or more recent aerial photo of 6 Ranch Airport that you would like to share? If so, please send us your photo.

 
Sectional chart

 
Airport distance calculator
Flying to 6 Ranch Airport? Find the distance to fly.

From to 05OR

Sunrise and sunset
Times for 22-Nov-2017
 Local
(UTC-8)
 Zulu
(UTC)
Morning civil twilight06:2614:26
Sunrise06:5914:59
Sunset16:1200:12
Evening civil twilight16:4500:45

Current date and time
Zulu (UTC)  23-Nov-2017 01:33:44
Local (UTC-8)  22-Nov-2017 17:33:44
 
METAR
KLGD 
30nm W 
230056Z AUTO 18017KT 10SM FEW110 14/09 A3017 RMK AO2 SLP346 T01440089
KBKE 
41nm SW 
230053Z AUTO 14008KT 10SM CLR 12/08 A3022 RMK AO2 SLP230 T01170078
KMEH 
45nm W 
230056Z AUTO 00000KT 10SM FEW065 11/08 A3015 RMK AO2 SLP206 T01060083
TAF
KBKE 
41nm SW 
221720Z 2218/2318 12010KT P6SM SCT060 BKN100
NOTAMs
Click for the latest NOTAMs
NOTAMs are issued by the DoD/FAA and will open in a separate window not controlled by AirNav.

 

 
 

Would you like to see your business listed on this page?

 If your business provides an interesting product or service to pilots, flight crews, aircraft, or users of the 6 Ranch Airport, you should consider listing it here.  To start the listing process, click on the button below
 
Add a business
 

Other Pages about 6 Ranch Airport

Update a link
 
Copyright © AirNav, LLC. All rights reserved. Privacy Policy  Contact